Flag for Cook Islands Weather past 2 weeks in Rarotonga, Cook Islands

Now
70 °F

Passing clouds.


Feels Like: 70 °F
Forecast: 68 / 74 °F
Wind: 12 mph from South

Location: Rarotonga

Current Time: Aug 28, 2015 at 10:27:08 PM

Latest Report: Aug 28, 2015 at 9:00 PM


Visibility: N/A

Pressure: 29.86 "Hg

Humidity: 78%

Dew point: 63 °F

Location of RarotongaLocation

Historic Weather in Rarotonga — Graph

°F

Rarotonga temperature yesterday

Maximum temperature yesterday: 79 °F (at 12:00 PM)
Minimum temperature yesterday: 66 °F (at 3:00 AM)
Average temperature yesterday: 73 °F

Past Weeks' High & Low Weather Summary

 TemperatureHumidityPressure
High81 °F (Aug 17, 12:00 PM)100% (Aug 19, 9:00 AM)30.09 "Hg (Aug 19, 9:00 AM)
Low61 °F (Aug 14, 7:00 AM)44% (Aug 18, 2:00 PM)29.80 "Hg (Aug 25, 6:00 PM)
Average70 °F74%29.98 "Hg
* Reported Aug 13 9:00 PM — Aug 28 9:00 PM, Rarotonga, Weather by CustomWeather, © 2015

Note: Actual official high and low records may vary slightly from our data, if they occured in-between our weather recording intervals... More about our weather records

Advertising

Rarotonga weather history for previous 24 hours

 ConditionsComfort  
Time TempWeatherWind HumidityBarometerVisibility
9:00 PM
Fri, Aug 28
70 °FPassing clouds.12 mph78%29.86 "HgN/A
8:00 PM68 °FSprinkles. Passing clouds.13 mph88%29.86 "HgN/A
7:00 PM70 °FSprinkles. Passing clouds.12 mph83%29.83 "HgN/A
6:00 PM70 °FDrizzle. Broken clouds.13 mph88%29.83 "HgN/A
5:00 PM72 °FDrizzle. Broken clouds.9 mph83%29.80 "HgN/A
4:00 PM73 °FBroken clouds.7 mph78%29.80 "HgN/A
3:00 PM77 °FBroken clouds.14 mph65%29.80 "HgN/A
2:00 PM77 °FBroken clouds.8 mph65%29.86 "HgN/A
1:00 PM77 °FPartly sunny.3 mph69%29.83 "HgN/A
12:00 PM75 °FPartly sunny.3 mph74%29.89 "HgN/A
11:00 AM75 °FPartly sunny.3 mph74%29.89 "HgN/A
10:00 AM73 °FScattered showers. Partly sunny.3 mph83%29.89 "HgN/A
9:00 AM72 °FScattered showers. Broken clouds.2 mph94%29.89 "HgN/A
8:00 AM72 °FSprinkles. Broken clouds.2 mph88%29.86 "HgN/A
7:00 AM68 °FBroken clouds.3 mph94%29.83 "HgN/A
6:00 AM64 °FPassing clouds.3 mph100%29.83 "HgN/A
5:00 AM66 °FPassing clouds.2 mph94%29.83 "HgN/A
4:00 AM66 °FPassing clouds.1 mph94%29.80 "HgN/A
3:00 AM66 °FPassing clouds.2 mph100%29.83 "HgN/A
2:00 AM68 °FPassing clouds.3 mph94%29.83 "HgN/A
1:00 AM70 °FPassing clouds.6 mph94%29.86 "HgN/A
11:00 PM
Thu, Aug 27
68 °FPassing clouds.3 mph94%29.86 "HgN/A
10:00 PM66 °FPassing clouds.2 mph94%29.89 "HgN/A
Weather by CustomWeather, © 2015

See weather overviewHow to use our weather pages